Location: Namasale
(1.5000°N, 32.6167°E)
Time: 17:49:00
(UTC+00:00)

Vanguard 1 Rocket - Pass Details

Date: 21 April 2021
Orbit: 652 x 4224 km, 34.3° (Epoch: 09 May)

Event Time Altitude Azimuth Distance (km) Brightness Sun altitude
Rises 21:14:48 0° 270° (W) 5,104 - -74.0°
Reaches altitude 10° 21:18:12 10° 259° (W) 4,542 - -74.4°
Maximum altitude 21:29:53 31° 201° (SSW) 4,322 - -75.6°
Drops below altitude 10° 21:48:43 10° 146° (SE) 7,177 - -76.3°
Exits shadow 21:51:47 - 142° (SE) 7,685 11.9 -76.3°
Sets 21:56:26 0° 137° (SE) 8,433 12.2 -76.2°
